Location: Bakov nad Jizerou
(50.4784°N, 14.9394°E)
Time: 03:22:05
(UTC+00:00)

Cosmos 1727 Rocket - Pass Details

Date: 01 November 2021
Orbit: 960 x 997 km, 82.9° (Epoch: 07 December)

Event Time Altitude Azimuth Distance (km) Brightness Sun altitude
Rises 03:49:35 0° 172° (S) 3,686 7.1 -19.7°
Reaches altitude 10° 03:52:09 10° 168° (SSE) 2,737 6.5 -19.3°
Maximum altitude 03:58:14 55° 92° (E) 1,167 4.8 -18.3°
Drops below altitude 10° 04:04:18 10° 17° (NNE) 2,730 6.5 -17.4°
Sets 04:06:51 0° 13° (NNE) 3,677 7.2 -17.0°
